Regional Weather Roundup
Issued by NWS Raleigh/Durham, NC

Home | Current Version | Previous Version | Text Only | Print | Product List | Glossary On
Versions: 1 2 3 4 5 6 7 8 9 10 11 12 13 14 15 16 17 18 19 20 21 22 23 24 25 26 27 28 29 30 31 32 33 34 35 36 37 38 39 40 41 42 43 44 45 46 47 48 49 50
000
ASUS42 KRAH 281510
RWRRAH
NORTH CAROLINA WEATHER ROUNDUP
NATIONAL WEATHER SERVICE RALEIGH NC
1100 AM EDT THU MAY 28 2015

NOTE: "FAIR" INDICATES FEW OR NO CLOUDS BELOW 12,000 FEET WITH NO
SIGNIFICANT WEATHER AND/OR OBSTRUCTIONS TO VISIBILITY.

NCZ001-053-055-056-065-067-281600-
WESTERN NORTH CAROLINA

CITY           SKY/WX    TMP DP  RH WIND       PRES   REMARKS
ASHEVILLE      SUNNY     74  62  66 N7        30.29F
JEFFERSON      CLOUDY    73  57  57 E3        30.32S
MORGANTON      SUNNY     78  64  62 CALM      30.29S
HICKORY        SUNNY     78  64  61 CALM      30.24S
RUTHERFORDTON  SUNNY     80  66  62 NE3       30.24S
MOUNT AIRY     SUNNY     81  67  62 CALM      30.25S
BOONE          MOSUNNY   72  58  61 W6        30.32F
$$

NCZ021-022-025-041-071-084-088-281600-
CENTRAL NORTH CAROLINA

CITY           SKY/WX    TMP DP  RH WIND       PRES   REMARKS
CHARLOTTE      PTSUNNY   81  65  58 CALM      30.24S
GREENSBORO     PTSUNNY   79  66  64 CALM      30.22F
WINSTON-SALEM  SUNNY     80  64  58 NE5       30.24F
RALEIGH-DURHAM CLOUDY    75  69  81 S5        30.25S
FORT BRAGG     PTSUNNY   77  68  73 S5        30.24R
FAYETTEVILLE   LGT RAIN  75  69  81 S8        30.25R
BURLINGTON     MOSUNNY   77  69  76 SE5       30.24S
LAURINBURG     PTSUNNY   78  67  68 S8        30.25S
$$

NCZ011-015-027-028-043-044-047-080-103-281600-
NORTHEASTERN NORTH CAROLINA

CITY           SKY/WX    TMP DP  RH WIND       PRES   REMARKS
ROCKY MT-WILSO PTSUNNY   79  71  76 S6        30.24F
GREENVILLE     PTSUNNY   81  68  65 S3        30.25S
WASHINGTON     SUNNY     78  65  65 S5        30.25F
ELIZABETH CITY SUNNY     79  68  69 S12       30.24F
MANTEO         CLOUDY    75  64  67 S10       30.27S
CAPE HATTERAS  CLOUDY    77  59  53 S6        30.28R
$$

NCZ078-087-090-091-093-098-101-281600-
SOUTHEASTERN NORTH CAROLINA

CITY           SKY/WX    TMP DP  RH WIND       PRES   REMARKS
LUMBERTON      CLOUDY    77  68  73 S7        30.25S
GOLDSBORO      PTSUNNY   79  66  65 CALM      30.23S
KINSTON        MOSUNNY   79  66  65 S5        30.25F
KENANSVILLE    MOSUNNY   79  65  63 SE3       30.26F
NEW BERN       PTSUNNY   81  64  56 SE6       30.27S
CHERRY POINT   PTSUNNY   79  62  56 CALM      30.27S
BEAUFORT       PTSUNNY   77  64  64 SE9       30.27R
JACKSONVILLE   PTSUNNY   79  63  57 E5        30.25F
WILMINGTON     SUNNY     79  62  56 E3        30.25S
$$



USA.gov is the U.S. government's official web portal to all federal, state and local government web resources and services.